Regional Weather Roundup
Issued by NWS

Home | Current Version | Previous Version | Graphics & Text | Print | Product List | Glossary On
Versions: 1 2 3 4 5 6 7 8 9 10 11 12 13 14 15 16 17 18 19 20 21 22 23 24 25 26 27 28 29 30 31 32 33 34 35 36 37 38 39 40 41 42 43 44 45 46 47 48 49 50
000
ASUS45 KCYS 202010
RWRWY

WYOMING REGIONAL WEATHER ROUNDUP
NATIONAL WEATHER SERVICE CHEYENNE WY
200 PM MDT WED SEP 20 2017

NOTE:  "FAIR" INDICATES FEW OR NO CLOUDS BELOW 12,000 FEET
WITH NO SIGNIFICANT WEATHER AND/OR OBSTRUCTIONS TO VISIBILITY.

WYZ001-202100-
YELLOWSTONE NATIONAL PARK

CITY           SKY/WX    TMP DP  RH WIND       PRES   REMARKS
LK YELLOWSTONE   N/A     37  33  85 VRB5      29.82F WCI  33
W YELLOWSTONE  NOT AVBL

$$
WYZ002>013-054>058-071-098>099-202100-
NORTHERN WYOMING

CITY           SKY/WX    TMP DP  RH WIND       PRES   REMARKS
JACKSON        CLOUDY    49  29  46 S14G24    29.83F
CODY           FAIR      57  30  35 W10G16    29.74
GREYBULL       PTSUNNY   64  26  23 SE12G21   29.70F
WORLAND        FAIR      65  26  23 SW12      29.74F
SHERIDAN       LGT RAIN  68  25  19 VRB3      29.69F
BUFFALO        FAIR      61  21  21 MISG      29.75F
GILLETTE       FAIR      64  24  21 W32G40    29.73F
HULETT         FAIR      63  25  23 SW18G31   29.76F
NEWCASTLE      FAIR      64  19  17 SW15G24   29.83F

$$
WYZ014>020-022>026-101>103-202100-
CENTRAL WYOMING

CITY           SKY/WX    TMP DP  RH WIND       PRES   REMARKS
BIG PINEY      FAIR      54  27  35 W18G28    29.93F
PINEDALE       FAIR      52  27  37 SW20G26   29.94F
DUBOIS         FAIR      48  27  43 W23G35    29.84S
LANDER           N/A    N/A N/A N/A MISG      29.81F
RIVERTON       FAIR      60  20  21 S13       29.81F
CASPER         FAIR      64  24  21 SW25G37   29.83F
DOUGLAS        FAIR      69  27  20 W12G29    29.84F

$$
WYZ021-027>030-104>119-202100-
SOUTHERN WYOMING

CITY           SKY/WX    TMP DP  RH WIND       PRES   REMARKS
EVANSTON       PTSUNNY   57  30  35 SW22G28   29.92F
KEMMERER         N/A     54  27  35 SW22G29   29.93F
FORT BRIDGER   FAIR      61  31  33 W24       29.95F
ROCK SPRINGS   FAIR      56  27  32 SW17      29.94F
DIXON          FAIR      64  35  34 W16G23    29.96F
RAWLINS        FAIR      58  34  40 SW26G35   29.94F
SARATOGA       MOCLDY    63  36  36 SW14G25   29.96F
LARAMIE        PTSUNNY   63  28  26 SW25G46   29.95F
CHEYENNE       FAIR      65  30  27 S16G30    29.94F
TORRINGTON     FAIR      74  34  23 S17G25    29.84F
PINE BLUFFS    FAIR      68  30  24 S17G25    29.93F

$$



USA.gov is the U.S. government's official web portal to all federal, state and local government web resources and services.